User: anonymous   Login
Location: Ostrava
(49.8330°N, 18.2830°E)
Time: 07:20:06
(UTC+02:00)
Language:

Explorer 7 - Orbit

View from above orbital plane
View from above orbital plane
View from above satellite
View from above satellite

Ground track
Ground track

The orbit data is extracted from the following two-line orbital elements,

1    22U 59009A   17115.89820953 +.00000496 +00000-0 +60988-4 0  9990
2    22 050.2843 087.1957 0142170 193.7694 165.9357 14.94085791053539
Epoch (UTC): 25 April 2017 21:33:25
Eccentricity: 0.0142170
inclination: 50.2843°
perigee height: 486 km
apogee height: 684 km
right ascension of ascending node: 87.1957°
argument of perigee: 193.7694°
revolutions per day: 14.94085791
mean anomaly at epoch: 165.9357°
orbit number at epoch: 5353

The dashed part of the orbit path shows where the satellite is in the earth's shadow,  

DLR